Vorticity
1 1 2 2 1 2 3 5 3 5 3 2 -0 9 8 11 4 8 3 10 6 13 13 11 8 8 6 8 6 6 5 6 7 7 6 5 6 7 7 3 4 5 4 4 11
3 3 2 2 1 3 1 2 3 -1 0 3 9 20 10 8 5 7 7 6 9 9 16 10 6 6 10 9 9 7 7 7 7 6 6 6 7 8 7 9 3 5 6 4 12
0 -0 2 2 5 5 7 5 4 3 8 21 6 6 6 6 5 8 11 7 10 4 5 10 7 9 6 1 5 9 7 7 7 5 6 5 7 7 6 13 4 6 4 7 7
3 4 7 7 7 7 5 6 8 12 11 1 5 7 8 7 7 9 12 9 13 7 6 7 8 6 1 1 7 9 5 5 6 7 7 7 6 8 7 10 9 5 5 7 5
9 8 10 10 9 10 8 13 12 7 4 9 7 8 6 6 8 8 7 7 -0 1 6 7 8 6 4 8 7 3 4 8 8 5 4 6 8 10 5 8 7 3 8 7 8
10 12 9 10 10 11 10 5 8 10 8 8 11 6 10 9 9 8 7 8 5 1 -1 5 4 6 11 5 3 6 6 5 4 3 4 9 10 8 7 6 6 6 7 8 7
4 4 4 5 5 4 5 7 11 9 8 11 5 5 8 7 6 8 8 6 8 5 -2 4 9 13 5 5 8 3 4 4 3 4 6 11 6 7 6 6 6 6 6 7 6
4 5 8 5 4 6 5 5 5 7 8 8 7 5 4 4 4 2 2 2 5 7 7 6 10 2 5 7 2 2 5 4 4 7 8 7 7 4 7 7 7 6 6 6 5
5 5 5 6 6 6 5 3 3 4 8 11 5 2 4 2 5 6 8 10 12 10 10 11 1 6 8 4 5 6 9 6 7 9 4 4 11 6 6 6 6 7 6 4 5
5 4 3 7 7 8 3 -0 -3 2 7 10 9 8 9 8 10 9 13 18 12 11 10 14 15 5 8 9 6 6 8 6 7 8 3 5 9 7 6 6 7 7 6 6 6
5 -0 3 5 6 13 7 0 2 7 9 9 10 13 14 14 3 9 3 -3 5 6 6 6 10 10 9 11 10 12 9 6 7 5 6 7 5 7 6 6 4 6 6 6 7
7 -1 7 7 3 7 13 8 7 5 8 4 1 3 -1 1 4 2 3 6 1 5 2 4 2 4 5 2 4 7 8 6 7 7 6 7 5 7 10 9 8 8 7 5 5
10 9 9 15 7 3 6 7 10 10 5 5 5 3 6 4 8 3 1 -1 4 2 5 4 3 6 7 5 6 10 10 3 5 7 8 12 7 9 8 9 12 14 16 15 11
6 8 8 7 3 4 4 5 6 7 4 -7 -2 13 12 13 5 12 7 4 5 8 4 7 6 7 4 9 8 13 6 6 10 11 10 9 8 1 11 10 13 15 16 14 14
3 7 2 6 1 1 -3 3 8 3 3 13 6 -4 3 8 -0 3 6 -1 5 6 7 7 8 6 7 8 6 1 4 4 5 5 6 3 7 10 5 11 7 13 13 12 13
1 1 3 2 2 2 3 2 4 8 3 3 4 4 5 1 6 9 2 9 2 -5 2 6 9 5 9 8 9 5 5 8 10 6 8 9 5 11 15 15 8 14 14 12 13
2 3 5 10 11 11 7 8 3 7 5 1 4 7 -0 2 -1 -5 7 6 0 3 6 4 11 11 11 9 10 10 9 8 11 11 6 9 5 9 6 11 10 11 10 9 9
2 4 4 2 -1 -1 2 3 -1 2 3 5 0 3 5 -3 1 1 1 3 8 4 1 5 7 9 9 7 8 10 12 12 13 11 3 8 12 11 9 7 7 14 17 11 8
4 -2 3 0 -5 -10 -1 -1 1 9 9 9 9 5 2 4 2 5 3 1 8 7 6 1 10 7 8 9 12 4 4 12 14 8 12 7 7 5 1 19 13 13 11 11 9
3 -0 3 2 -2 -1 -1 3 11 3 2 1 6 7 5 4 3 6 -0 0 9 10 6 2 1 12 13 15 12 9 12 12 10 6 10 6 7 3 7 11 9 4 7 9 11
0 2 0 3 5 11 5 1 2 3 3 2 2 5 4 5 8 7 8 6 5 7 6 6 4 11 13 17 8 9 11 12 7 4 11 7 3 5 16 14 10 8 8 9 8
7 5 7 3 5 6 4 1 -2 -3 2 2 3 -1 -2 0 7 6 4 5 11 10 5 4 1 10 16 15 13 5 5 7 6 13 4 -2 -5 12 19 9 8 7 7 6 8
-2 2 5 1 -1 1 5 5 -3 -7 3 4 2 2 13 10 9 7 6 11 14 10 2 5 2 8 11 13 5 7 11 6 7 11 -8 -4 6 16 11 10 6 5 9 9 10
12 7 17 17 6 10 10 6 -5 4 8 2 1 12 11 11 9 3 1 9 13 8 13 17 7 10 13 13 5 14 15 5 4 -5 -5 7 19 15 6 7 10 12 12 12 8
5 -11 -8 -16 -0 -9 -11 -5 -1 7 13 8 2 16 13 6 9 12 17 11 5 9 9 14 6 7 16 6 12 13 9 7 -5 -3 -2 20 10 14 9 6 5 7 8 8 15
-12 1 5 -2 -6 14 8 -1 11 21 12 9 14 9 8 8 15 12 8 5 8 17 12 7 4 12 9 14 11 -3 8 -0 -4 12 21 17 1 6 10 5 9 13 10 15 15
11 17 27 25 8 14 13 17 17 14 8 9 4 4 5 17 7 10 7 11 12 6 7 7 19 20 8 9 9 -1 6 -1 11 24 10 6 11 11 13 14 14 15 15 16 13
Height
5874 5874 5873 5872 5871 5871 5871 5870 5869 5867 5866 5863 5861 5859 5858 5856 5855 5853 5850 5848 5845 5842 5841 5839 5839 5837 5836 5835 5834 5832 5831 5828 5826 5824 5822 5819 5816 5814 5812 5809 5806 5802 5798 5792 5787
5871 5871 5870 5870 5869 5868 5868 5867 5866 5865 5863 5861 5858 5857 5856 5854 5852 5850 5848 5845 5843 5841 5839 5838 5837 5836 5834 5833 5831 5830 5828 5826 5824 5821 5819 5817 5814 5811 5809 5807 5803 5800 5796 5791 5786
5869 5868 5868 5867 5866 5865 5865 5864 5863 5861 5859 5857 5855 5853 5851 5851 5851 5848 5846 5843 5842 5840 5838 5836 5835 5834 5832 5830 5829 5827 5825 5823 5821 5819 5816 5814 5812 5809 5806 5804 5800 5797 5794 5790 5785
5865 5865 5864 5863 5863 5862 5861 5860 5859 5858 5856 5854 5853 5851 5848 5846 5847 5844 5843 5842 5840 5838 5837 5836 5834 5832 5830 5828 5825 5823 5821 5820 5818 5816 5814 5811 5808 5806 5802 5801 5798 5795 5791 5788 5784
5860 5859 5859 5858 5858 5857 5856 5856 5855 5854 5853 5852 5850 5849 5847 5845 5844 5842 5840 5839 5838 5837 5835 5833 5832 5830 5827 5825 5822 5820 5818 5816 5814 5811 5808 5806 5803 5802 5798 5796 5794 5792 5789 5785 5782
5854 5854 5854 5854 5854 5854 5853 5852 5852 5851 5850 5848 5847 5844 5844 5843 5841 5840 5839 5837 5836 5834 5832 5831 5829 5826 5824 5822 5820 5817 5814 5811 5808 5806 5804 5802 5799 5796 5793 5790 5788 5785 5782 5780 5777
5851 5851 5851 5850 5851 5851 5850 5849 5848 5847 5845 5844 5843 5841 5840 5841 5838 5837 5836 5834 5834 5832 5830 5828 5826 5823 5820 5818 5815 5813 5811 5807 5805 5802 5799 5797 5792 5789 5786 5784 5780 5777 5776 5774 5771
5848 5848 5847 5846 5846 5846 5846 5845 5843 5843 5843 5841 5839 5838 5836 5836 5834 5833 5831 5830 5829 5828 5827 5824 5822 5820 5818 5815 5812 5809 5807 5803 5799 5797 5797 5794 5792 5786 5784 5781 5778 5775 5772 5770 5766
5843 5843 5843 5842 5842 5842 5842 5841 5840 5839 5839 5838 5837 5835 5835 5833 5832 5831 5829 5827 5825 5823 5822 5820 5818 5815 5814 5811 5809 5806 5803 5799 5795 5792 5791 5788 5786 5781 5778 5776 5774 5771 5767 5764 5761
5836 5836 5836 5837 5837 5836 5836 5836 5835 5834 5833 5833 5832 5833 5831 5830 5828 5827 5826 5824 5821 5819 5817 5815 5813 5811 5809 5806 5803 5799 5796 5794 5789 5785 5782 5780 5780 5775 5770 5770 5768 5763 5759 5757 5755
5829 5829 5829 5830 5830 5830 5830 5830 5831 5831 5827 5826 5827 5827 5825 5825 5825 5823 5822 5820 5817 5815 5813 5809 5807 5804 5801 5798 5794 5791 5787 5783 5782 5780 5777 5774 5772 5768 5763 5760 5757 5757 5753 5750 5748
5820 5820 5822 5822 5822 5822 5823 5823 5823 5824 5823 5820 5820 5820 5819 5818 5818 5817 5815 5814 5811 5808 5806 5804 5800 5796 5794 5790 5787 5785 5782 5781 5779 5773 5769 5765 5762 5759 5755 5751 5750 5747 5745 5743 5740
5811 5811 5812 5813 5814 5814 5815 5816 5816 5817 5815 5817 5815 5813 5812 5812 5811 5811 5809 5807 5805 5802 5800 5797 5795 5791 5787 5784 5781 5778 5774 5770 5767 5764 5760 5757 5754 5752 5747 5744 5740 5738 5735 5733 5731
5802 5803 5803 5805 5806 5806 5806 5807 5808 5809 5807 5810 5809 5808 5806 5803 5803 5802 5801 5801 5799 5796 5794 5791 5788 5785 5782 5778 5774 5771 5768 5764 5760 5757 5754 5750 5749 5746 5742 5737 5733 5729 5727 5723 5721
5792 5793 5794 5795 5796 5797 5798 5798 5799 5800 5798 5798 5799 5798 5797 5797 5796 5794 5793 5791 5790 5788 5787 5784 5780 5777 5773 5770 5767 5763 5759 5755 5752 5748 5745 5743 5739 5737 5734 5729 5725 5723 5720 5715 5712
5783 5784 5784 5784 5785 5785 5786 5788 5790 5791 5787 5789 5788 5788 5788 5787 5785 5784 5783 5782 5781 5779 5776 5773 5770 5766 5763 5759 5755 5752 5748 5745 5742 5739 5737 5733 5730 5732 5724 5719 5717 5713 5710 5708 5705
5771 5773 5774 5774 5775 5774 5774 5776 5778 5778 5780 5779 5778 5778 5777 5776 5775 5774 5773 5772 5770 5767 5766 5764 5761 5757 5753 5750 5746 5742 5738 5734 5733 5730 5727 5724 5721 5722 5716 5713 5710 5707 5703 5700 5697
5758 5760 5762 5764 5764 5764 5764 5764 5763 5765 5766 5769 5769 5768 5767 5766 5765 5763 5761 5761 5758 5756 5752 5748 5746 5744 5742 5738 5736 5732 5728 5724 5718 5718 5717 5714 5711 5710 5707 5705 5701 5699 5695 5692 5687
5746 5746 5749 5752 5752 5754 5754 5751 5751 5752 5755 5754 5754 5754 5755 5754 5752 5749 5749 5748 5746 5746 5744 5738 5737 5733 5729 5727 5725 5722 5717 5714 5708 5706 5704 5705 5704 5700 5699 5696 5692 5688 5686 5682 5679
5735 5735 5734 5736 5736 5738 5740 5739 5740 5741 5740 5739 5738 5739 5739 5739 5739 5739 5738 5736 5736 5734 5732 5730 5726 5723 5719 5717 5715 5707 5706 5702 5697 5693 5693 5694 5691 5688 5689 5685 5681 5679 5675 5672 5669
5720 5720 5722 5722 5723 5721 5721 5722 5725 5728 5728 5725 5724 5725 5724 5723 5723 5722 5723 5724 5721 5719 5717 5716 5713 5712 5707 5707 5702 5699 5695 5691 5685 5681 5679 5681 5682 5681 5677 5673 5670 5667 5664 5661 5658
5703 5703 5706 5708 5711 5708 5707 5708 5713 5713 5711 5713 5711 5711 5711 5711 5709 5706 5707 5707 5705 5702 5701 5699 5696 5695 5695 5694 5693 5689 5684 5679 5673 5673 5666 5669 5671 5667 5665 5661 5658 5655 5653 5651 5649
5685 5689 5687 5687 5689 5690 5695 5696 5697 5698 5698 5695 5695 5697 5697 5694 5692 5693 5691 5693 5691 5689 5684 5683 5680 5680 5680 5683 5681 5677 5673 5667 5663 5660 5659 5653 5657 5653 5652 5649 5644 5642 5639 5638 5639
5662 5665 5671 5672 5673 5673 5675 5680 5680 5680 5679 5680 5683 5681 5680 5679 5678 5675 5675 5676 5675 5672 5669 5666 5664 5666 5668 5668 5667 5665 5659 5655 5652 5649 5650 5645 5643 5640 5638 5635 5631 5629 5627 5627 5627
5641 5648 5652 5654 5657 5659 5659 5661 5660 5660 5660 5662 5662 5662 5661 5660 5661 5661 5660 5659 5658 5657 5653 5651 5650 5652 5653 5652 5653 5652 5647 5642 5639 5639 5632 5638 5626 5629 5623 5620 5619 5616 5614 5615 5614
5626 5630 5632 5639 5640 5638 5639 5644 5642 5643 5642 5642 5639 5641 5641 5642 5644 5643 5643 5640 5642 5639 5637 5638 5632 5637 5638 5640 5640 5635 5634 5634 5629 5625 5617 5617 5618 5612 5611 5609 5607 5605 5603 5603 5602
5600 5605 5605 5614 5616 5618 5624 5626 5626 5624 5622 5624 5624 5623 5624 5629 5626 5626 5625 5624 5624 5624 5623 5623 5623 5620 5620 5625 5623 5619 5630 5620 5616 5613 5606 5604 5604 5600 5598 5595 5594 5593 5591 5590 5589